Showing default

IRIDIUM 150, 43257

Orbit data source: Space-Track

IRIDIUM 150, 43257 is a payload satellite owned by Iridium (US) in LEO that was launched on Fri, 30 Mar 2018 UTC via an FALCON 9 launch vehicle from the Air Force Western Test Range (AFWTR). Payload-class satellites include a variety of spacecraft equipped with specific instruments for various scientific and technological missions. These include communications satellites like Starlink; space stations such as the ISS; scientific satellites like the Hubble; Earth observation satellites from companies like Planet Labs, Umbra, and HawkEye 360; GPS; miniature CubeSats for education and research; and military/defense satellites.

Loading next visibility...
Identifier
43257, 2018-030J
Orbit
LEO
Country
Flag of USUS
Related business
Manufacturer
OATK SSG Gilbert
Mission
Operational Commercial Communications
Bus & Motor
ELITEBUS, Unknown motor
Mass
860 kg wet, 700 kg dry
Launch date (UTC)
2018-03-30 (8 years ago)
Launch vehicle
FALCON 9
Launch site
Air Force Western Test Range (AFWTR)
Object type
Payload
Rocket body
Debris
Shape & HBR
Trap Box + 2 Pan, 4.8 m
Radar Cross Section
10.154 m², Large (>1 m²)

Expand to show TLE details & history
Last TLE update: 6 hours ago

TLE from 6 hours ago
0 IRIDIUM 150
1 43257U 18030J   26125.44980802  .00000000  00000-0 -69023-5 0  9990
2 43257  86.3928 308.3468 0002068  88.6711 271.4722 14.34217332424036
Epoch: 2026-05-05T10:47Z
TLE epoch observation values (Epoch: 2026-05-05T10:47:43.412Z)
Latitude
-0.00002°
Longitude
-76.90857°
Altitude
780.682 km
Speed
7.464 km/s
True Right ascension
20h 33m 23s
True Declination
0° 00' 00"
Sunlit
Object was in daylight at epoch
Visualization orbit readout
Latitude
Unknown
Longitude
Unknown
Altitude
Unknown
Speed
Unknown
Apparent Right ascension
Unknown
Apparent Declination
Unknown
Sunlit
N/A
Visualization observer readout
Local Sidereal Time
00:21:34
Azimuth
Unknown
Elevation
Unknown
Doppler factor
Unknown
Orbital elements
Apogee altitude
776.112 km
Perigee altitude
773.154 km
Semi-major axis
7,152.77 km
Eccentricity
0.00021
Inclination
86.3928°
RAAN
308.3468°
Arg. of periapsis
88.6711°
True anomaly
271.44851°
Mean anomaly
271.4722°
Eccentric anomaly
271.46036°
Mean motion
3.58783 °/min
Orbital period
100.34 mins
BSTAR
-0.0000069023
Loading maneuver chart data...
Computing Atmospheric mass density...
Loading historical data...
Loading historical data...
Loading historical data...
Loading historical data...
Loading historical data...
Loading historical data...
Loading historical data...

Documentation

Showing up to 5 results
|